[[{"header":{"parameterUnit":"m.s-1","parameterCategory":2,"la1":30.2991,"la2":30.254,"lo1":-89.0895,"lo2":-89.0444,"dy":0.0017,"dx":0.0017,"nx":28,"ny":28,"refTime":"2025-07-13T09:00:00:Z","depth":"0","parameterNumber":2,"parameterNumberName":"U-component_of_CURRENTS"},"data":[0,0,0,0,0,0,0,0,0,0,0,0,0,0,0,0,0,0,0,0,0,0,0,0,0,0,0,0,0,0,0,0,0,0,0,0,0,0,0,0,0,0,0,0,0,0,0,0,0,0,0,0,0,0,0,0,0,0,0.2958,0.2958,0,0.3009,0.3009,0.301,0.3088,0.309,0.3091,0.3093,0.3158,0.3158,0.3158,0,0,0,0,0,0,0,0,0,0,0,0,0,0.2963,0.2962,0.2958,0.2958,0.2959,0.3008,0.3009,0.301,0.3088,0.309,0.3092,0.3093,0.3157,0.3158,0.3158,0,0,0,0,0,0,0,0,0,0,0,0,0,0.2981,0.2962,0.2957,0.3005,0.3009,0.3008,0.3009,0.301,0.3088,0.309,0.3092,0.3094,0.3157,0.3158,0.3158,0.3117,0,0,0.316,0.316,0,0,0,0,0,0,0,0,0.298,0.298,0.2997,0.3001,0.3007,0.3045,0.3035,0.3047,0.3087,0.3057,0.3093,0.3095,0.312,0.3124,0.3127,0.312,0.3123,0.316,0.316,0.316,0.3161,0,0,0,0,0,0,0,0.2978,0.2979,0.2977,0.2998,0.3004,0.3035,0.304,0.3037,0.3075,0.306,0.3066,0.3072,0.3123,0.3126,0.3129,0.3124,0.316,0.316,0.3161,0.3161,0.3162,0.3162,0,0,0,0,0,0,0.2969,0.2977,0.2975,0.2979,0.2999,0.3033,0.3038,0.303,0.3075,0.3084,0.307,0.3076,0.3124,0.3128,0.3132,0.3103,0.316,0.3161,0.3161,0.3162,0.3162,0.3162,0,0,0,0,0,0,0.2969,0.2968,0.2973,0.2981,0.2984,0.3031,0.302,0.303,0.3038,0.3083,0.3093,0.307,0.3126,0.3131,0.3124,0.3105,0.3161,0.3162,0.3163,0.3162,0.3162,0.3033,0,0,0,0,0,0,0.2968,0.2967,0.2948,0.2979,0.2983,0.2955,0.3019,0.3029,0.3039,0.3047,0.3085,0.3094,0.3128,0.3123,0.3125,0.3107,0.3162,0.3163,0.3163,0.3162,0.3038,0.3028,0.302,0,0,0,0,0,0.2968,0.2929,0.2946,0.2946,0.2958,0.2953,0.2956,0.2999,0.3036,0.3019,0.3054,0.3093,0.3123,0.3121,0.3124,0.3106,0.3163,0.3163,0.3162,0.3042,0.303,0.302,0,0,0,0,0,0,0.2901,0.2934,0.2954,0.2921,0.2931,0.2967,0.2944,0.2987,0.3,0.3004,0.3065,0.3074,0.3075,0.3104,0.3102,0.3112,0.3159,0.3158,0.3066,0.3056,0.3047,0.3024,0.3162,0,0,0,0,0,0.288,0.2874,0.2899,0.287,0.2863,0.2903,0.2905,0.2934,0.2956,0.2965,0.2997,0.3037,0.3071,0.3072,0.3102,0.3076,0.3121,0.3078,0.3069,0.3061,0.3048,0.3119,0.3115,0.316,0.316,0.316,0,0,0.2846,0.2863,0.2857,0.2858,0.2861,0.2829,0.2908,0.2891,0.288,0.2965,0.2943,0.3001,0.3062,0.3054,0.3058,0.3072,0.3066,0.3061,0.3053,0.3044,0.3118,0.3114,0.311,0.3159,0.3159,0.3159,0,0,0.2768,0.2779,0.2743,0.274,0.2743,0.2764,0.2757,0.278,0.28,0.2786,0.2869,0.2904,0.2928,0.2975,0.3004,0.2959,0.3027,0.2984,0.29,0.2969,0.2966,0.2963,0.2979,0.2979,0.2967,0.2966,0.2966,0,0.2724,0.2682,0.2727,0.2682,0.2674,0.2728,0.2678,0.2689,0.2716,0.2735,0.276,0.2849,0.289,0.2922,0.2911,0.2936,0.2977,0.2928,0.2956,0.2955,0.2954,0.2972,0.2974,0.296,0.2961,0.2962,0.2962,0,0.2631,0.2582,0.2546,0.2522,0.252,0.2475,0.2507,0.2505,0.2544,0.2585,0.2627,0.2693,0.2758,0.2781,0.2822,0.2851,0.2879,0.2944,0.2974,0.2942,0.2962,0.2966,0.2951,0.2953,0.2955,0.2957,0,0,0.2566,0.2496,0.2486,0.2449,0.2433,0.2428,0.2393,0.2403,0.2418,0.2446,0.2477,0.2531,0.2606,0.2645,0.2724,0.2765,0.2781,0.2836,0.2843,0.2834,0.29,0.283,0.2829,0.2861,0.2862,0.2862,0.2901,0,0.2472,0.2376,0.2372,0.2275,0.2221,0.2257,0.2248,0.2278,0.2316,0.2353,0.2437,0.2495,0.2546,0.2595,0.2638,0.2773,0.2793,0.2762,0.2948,0.2952,0.2881,0.2832,0.2672,0.2687,0.2906,0.2906,0.2907,0,0.2395,0.2336,0.2242,0.2184,0.2169,0.2134,0.2162,0.2157,0.2222,0.2268,0.2323,0.2407,0.247,0.2534,0.2678,0.2663,0.2753,0.2838,0.2844,0.2827,0.289,0.2765,0.2687,0.2577,0.2914,0.2914,0.2913,0,0.2394,0.2254,0.2192,0.2165,0.2112,0.2092,0.208,0.2135,0.2151,0.2217,0.2249,0.2347,0.2412,0.2534,0.2669,0.2693,0.2828,0.2897,0.2903,0.2899,0.2821,0.2808,0.2644,0.2983,0.2983,0.2983,0.2983,0,0.2339,0.2264,0.2175,0.2145,0.2069,0.2068,0.2034,0.2059,0.2104,0.2126,0.2209,0.2253,0.2423,0.2515,0.2642,0.2755,0.2806,0.2862,0.2903,0.2767,0.2749,0.2701,0.267,0.2985,0.2984,0.2984,0.2984,0,0.2348,0.2291,0.2195,0.2112,0.2067,0.2035,0.1965,0.1957,0.202,0.2046,0.2067,0.2189,0.2308,0.2442,0.2643,0.2712,0.275,0.2873,0.2661,0.2675,0.2569,0.2539,0.2415,0.2383,0.2879,0.2877,0.2876,0,0.2323,0.2286,0.2185,0.2117,0.2054,0.197,0.1918,0.1922,0.1916,0.2009,0.2028,0.2135,0.2213,0.2422,0.2554,0.2704,0.2675,0.264,0.2655,0.2498,0.2498,0.2449,0.2429,0.2494,0.2489,0.2486,0.2483,0,0.2257,0.2262,0.2212,0.2088,0.1991,0.1897,0.1817,0.1805,0.1843,0.1872,0.1954,0.2024,0.2183,0.2255,0.2407,0.2503,0.2459,0.2573,0.2483,0.2214,0.208,0.209,0.2506,0.2451,0.2455,0.2457,0.2459,0.246,0.2202,0.2175,0.2131,0.201,0.1921,0.1844,0.1764,0.1732,0.1729,0.1751,0.1846,0.1883,0.1964,0.2163,0.2235,0.2183,0.2285,0.2149,0.2135,0.2108,0.202,0.2325,0.2282,0.2284,0.2285,0.2287,0.2288,0,0.2073,0.2073,0.2008,0.1892,0.1805,0.1775,0.1698,0.163,0.1602,0.1621,0.1652,0.1658,0.1691,0.177,0.177,0.1728,0.1746,0.1691,0.157,0.1593,0.1913,0.1836,0.1603,0.1603,0.1603,0.1603,0.1604,0.1604,0.1986,0.1936,0.1933,0.1776,0.1709,0.1564,0.1519,0.1464,0.1439,0.1358,0.1314,0.1344,0.1379,0.1322,0.1258,0.1279,0.1237,0.117,0.1265,0.1444,0.1485,0.1525,0.1442,0.1131,0.113,0.0879,0.0876,0.0874]},{"header":{"parameterUnit":"m.s-1","parameterCategory":2,"la1":30.2991,"la2":30.254,"lo1":-89.0895,"lo2":-89.0444,"dy":0.0017,"dx":0.0017,"nx":28,"ny":28,"refTime":"2025-07-13T09:00:00:Z","depth":"0","parameterNumber":3,"parameterNumberName":"V-component_of_CURRENTS"},"data":[0,0,0,0,0,0,0,0,0,0,0,0,0,0,0,0,0,0,0,0,0,0,0,0,0,0,0,0,0,0,0,0,0,0,0,0,0,0,0,0,0,0,0,0,0,0,0,0,0,0,0,0,0,0,0,0,0,0,-0.0996,-0.0996,0,-0.1005,-0.1005,-0.1005,-0.0994,-0.0994,-0.0994,-0.0993,-0.0961,-0.096,-0.0959,0,0,0,0,0,0,0,0,0,0,0,0,0,-0.0884,-0.0887,-0.0996,-0.0996,-0.0996,-0.1005,-0.1005,-0.1005,-0.0994,-0.0994,-0.0994,-0.0993,-0.0961,-0.096,-0.0959,0,0,0,0,0,0,0,0,0,0,0,0,0,-0.0915,-0.0887,-0.0996,-0.0993,-0.0994,-0.1005,-0.1005,-0.1005,-0.0994,-0.0994,-0.0993,-0.0993,-0.0961,-0.096,-0.0959,-0.096,0,0,-0.0956,-0.0956,0,0,0,0,0,0,0,0,-0.0914,-0.0919,-0.0994,-0.0994,-0.0994,-0.1,-0.0954,-0.0988,-0.0994,-0.0992,-0.0993,-0.0993,-0.0971,-0.097,-0.097,-0.0958,-0.0957,-0.0956,-0.0955,-0.0955,-0.0955,0,0,0,0,0,0,0,-0.0912,-0.0918,-0.0997,-0.0994,-0.0994,-0.0963,-0.0968,-0.096,-0.0981,-0.0992,-0.0992,-0.0996,-0.0971,-0.0971,-0.0969,-0.0956,-0.0956,-0.0955,-0.0954,-0.0954,-0.0895,-0.0895,0,0,0,0,0,0,-0.092,-0.0917,-0.0997,-0.0998,-0.0954,-0.0966,-0.0971,-0.0997,-0.0982,-0.098,-0.0996,-0.0996,-0.0973,-0.097,-0.0967,-0.0917,-0.0955,-0.0954,-0.0953,-0.0896,-0.0895,-0.0894,0,0,0,0,0,0,-0.0918,-0.0928,-0.0997,-0.0957,-0.0964,-0.0969,-0.0997,-0.0997,-0.0998,-0.0986,-0.0983,-0.0998,-0.0972,-0.0969,-0.0947,-0.0917,-0.0953,-0.0953,-0.0898,-0.0896,-0.0895,-0.0848,0,0,0,0,0,0,-0.0915,-0.0928,-0.0949,-0.0959,-0.0967,-0.0996,-0.0998,-0.0997,-0.1003,-0.1002,-0.0987,-0.0984,-0.0972,-0.0949,-0.0946,-0.0917,-0.0952,-0.0899,-0.0897,-0.0895,-0.0851,-0.0845,-0.084,0,0,0,0,0,-0.0911,-0.0939,-0.0951,-0.096,-0.0998,-0.0996,-0.0996,-0.0996,-0.1003,-0.0997,-0.0984,-0.0984,-0.0935,-0.0948,-0.0945,-0.0914,-0.09,-0.0897,-0.0895,-0.0853,-0.0846,-0.084,0,0,0,0,0,0,-0.0892,-0.0941,-0.0954,-0.0994,-0.0993,-0.0995,-0.0995,-0.1,-0.0988,-0.0986,-0.0977,-0.0971,-0.094,-0.0939,-0.0953,-0.0892,-0.0916,-0.0913,-0.0885,-0.0878,-0.0873,-0.0865,-0.0951,0,0,0,0,0,-0.0903,-0.094,-0.0962,-0.0987,-0.0992,-0.0996,-0.0998,-0.0997,-0.099,-0.0985,-0.0971,-0.0954,-0.093,-0.0915,-0.0898,-0.0871,-0.0868,-0.0848,-0.0843,-0.0838,-0.083,-0.0816,-0.0809,-0.0887,-0.0887,-0.0887,0,0,-0.0898,-0.0931,-0.095,-0.0985,-0.0987,-0.0968,-0.0995,-0.0995,-0.0965,-0.0983,-0.0939,-0.0939,-0.0921,-0.0881,-0.0866,-0.0875,-0.0812,-0.0836,-0.0832,-0.0826,-0.0813,-0.0806,-0.0799,-0.0886,-0.0886,-0.0886,0,0,-0.0878,-0.0939,-0.0944,-0.0948,-0.0958,-0.0957,-0.0958,-0.0958,-0.0948,-0.0918,-0.0916,-0.0901,-0.0866,-0.0842,-0.0827,-0.0787,-0.0789,-0.0782,-0.0742,-0.0728,-0.0721,-0.0716,-0.0688,-0.0681,-0.0774,-0.0774,-0.0774,0,-0.0865,-0.0881,-0.0937,-0.0926,-0.092,-0.0948,-0.0918,-0.091,-0.0895,-0.0883,-0.0893,-0.0849,-0.0841,-0.0789,-0.077,-0.0773,-0.0765,-0.0766,-0.0721,-0.0715,-0.071,-0.0684,-0.0676,-0.0771,-0.0771,-0.0772,-0.0772,0,-0.0837,-0.0838,-0.0837,-0.0838,-0.084,-0.0823,-0.0824,-0.0812,-0.0812,-0.0804,-0.0771,-0.0768,-0.0744,-0.0735,-0.0736,-0.0691,-0.0697,-0.0721,-0.0737,-0.0699,-0.0674,-0.0667,-0.0768,-0.0768,-0.0769,-0.077,0,0,-0.0837,-0.0817,-0.0817,-0.079,-0.0794,-0.0789,-0.0749,-0.0723,-0.0699,-0.0692,-0.0657,-0.0628,-0.0657,-0.0642,-0.0652,-0.0636,-0.0591,-0.0659,-0.0659,-0.0631,-0.0548,-0.0524,-0.0514,-0.0611,-0.061,-0.0609,-0.0539,0,-0.0786,-0.0735,-0.0747,-0.0684,-0.0655,-0.0672,-0.0641,-0.063,-0.0619,-0.0595,-0.0603,-0.0578,-0.0611,-0.0607,-0.0597,-0.0604,-0.0572,-0.0607,-0.0589,-0.0588,-0.0571,-0.0505,-0.0441,-0.0371,-0.0532,-0.0531,-0.053,0,-0.0762,-0.0724,-0.0658,-0.061,-0.0604,-0.0571,-0.0546,-0.0525,-0.051,-0.0508,-0.05,-0.0512,-0.0493,-0.0531,-0.0511,-0.0535,-0.0529,-0.0531,-0.0529,-0.0518,-0.055,-0.0438,-0.0352,-0.034,-0.0519,-0.052,-0.0521,0,-0.0747,-0.0671,-0.0615,-0.06,-0.0554,-0.0524,-0.0505,-0.0493,-0.048,-0.0455,-0.044,-0.0439,-0.0432,-0.0438,-0.0447,-0.0477,-0.0421,-0.0467,-0.0428,-0.0426,-0.0373,-0.0368,-0.0273,-0.0425,-0.0425,-0.0426,-0.0426,0,-0.0713,-0.066,-0.0594,-0.0567,-0.0504,-0.0499,-0.0447,-0.0437,-0.0422,-0.0397,-0.0403,-0.037,-0.0409,-0.0388,-0.041,-0.0388,-0.039,-0.0397,-0.0399,-0.0353,-0.0348,-0.0339,-0.0361,-0.0423,-0.0424,-0.0424,-0.0425,0,-0.0707,-0.0663,-0.0601,-0.0531,-0.0497,-0.0472,-0.0409,-0.0373,-0.0373,-0.0335,-0.0326,-0.0312,-0.0288,-0.0305,-0.03,-0.0324,-0.0285,-0.0298,-0.0234,-0.023,-0.0211,-0.0233,-0.0155,-0.0104,-0.0253,-0.0252,-0.0251,0,-0.0681,-0.0654,-0.0589,-0.0546,-0.05,-0.0436,-0.0385,-0.0358,-0.0326,-0.029,-0.0269,-0.0225,-0.0186,-0.0165,-0.0186,-0.0189,-0.0203,-0.0136,-0.0184,-0.0171,-0.0198,-0.0226,-0.0191,-0.0088,-0.0085,-0.0084,-0.0082,0,-0.0636,-0.0646,-0.0604,-0.0526,-0.0452,-0.0383,-0.0306,-0.0275,-0.0253,-0.0214,-0.0161,-0.012,-0.0083,-0.005,-0.0052,-0.0062,-0.0102,-0.0101,-0.0097,-0.0056,-0.0068,-0.0033,-0.0173,-0.0066,-0.0068,-0.0069,-0.007,-0.007,-0.0612,-0.0591,-0.0556,-0.0481,-0.0412,-0.0334,-0.0279,-0.0211,-0.0161,-0.0116,-0.0081,-0.0011,0.0043,0.0048,0.0045,0.0067,0.0016,0.0059,0.0035,0.0008,0.0053,-0.0045,0.0054,0.0054,0.0053,0.0052,0.0051,0,-0.0547,-0.053,-0.0482,-0.0404,-0.0343,-0.0312,-0.0226,-0.0187,-0.0117,-0.0063,-0.0013,0.0096,0.0162,0.0179,0.0202,0.0202,0.0203,0.0198,0.0182,0.0215,0.0134,0.0136,0.0271,0.0271,0.0271,0.0271,0.0271,0.0271,-0.0501,-0.0455,-0.0439,-0.0338,-0.0294,-0.0215,-0.0175,-0.0135,-0.0099,-0.0016,0.0053,0.0103,0.0176,0.0232,0.0272,0.0281,0.029,0.0286,0.0277,0.0211,0.0196,0.0181,0.0181,0.0323,0.0323,0.0404,0.0405,0.0405]}],[{"header":{"parameterUnit":"m.s-1","parameterCategory":2,"la1":30.2991,"la2":30.254,"lo1":-89.0895,"lo2":-89.0444,"dy":0.0017,"dx":0.0017,"nx":28,"ny":28,"refTime":"2025-07-13T09:00:00:Z","depth":"2","parameterNumber":2,"parameterNumberName":"U-component_of_CURRENTS"},"data":[0,0,0,0,0,0,0,0,0,0,0,0,0,0,0,0,0,0,0,0,0,0,0,0,0,0,0,0,0,0,0,0,0,0,0,0,0,0,0,0,0,0,0,0,0,0,0,0,0,0,0,0,0,0,0,0,0,0,0.092,0.0921,0,0.0777,0.0773,0.0768,0.0711,0.0714,0.0718,0.0721,0.0842,0.0842,0.0842,0,0,0,0,0,0,0,0,0,0,0,0,0,0.0969,0.0967,0.092,0.0921,0.0922,0.0778,0.0772,0.0767,0.071,0.0714,0.0719,0.0722,0.0842,0.0842,0.0842,0,0,0,0,0,0,0,0,0,0,0,0,0,0.0869,0.0966,0.092,0.09,0.09,0.0779,0.0772,0.0766,0.071,0.0715,0.072,0.0724,0.0842,0.0842,0.0842,0.0743,0,0,0.0843,0.0843,0,0,0,0,0,0,0,0,0.0874,0.0863,0.0902,0.0902,0.0901,0.0796,0.0836,0.0783,0.0708,0.0747,0.0721,0.0727,0.0869,0.0867,0.0778,0.0749,0.0754,0.0843,0.0843,0.0843,0.0843,0,0,0,0,0,0,0,0.0882,0.0868,0.083,0.0904,0.0903,0.0842,0.0831,0.0821,0.0761,0.0744,0.0748,0.0782,0.0866,0.0778,0.0783,0.0756,0.0843,0.0843,0.0843,0.0843,0.088,0.0881,0,0,0,0,0,0,0.0968,0.0875,0.0835,0.0829,0.0937,0.084,0.0826,0.0798,0.0756,0.0761,0.0778,0.0781,0.0775,0.0782,0.0787,0.0918,0.0843,0.0843,0.0843,0.0879,0.088,0.0881,0,0,0,0,0,0,0.0968,0.0962,0.0842,0.0879,0.0864,0.0839,0.0804,0.0793,0.0771,0.0785,0.079,0.0783,0.0779,0.0787,0.0818,0.0916,0.0843,0.0843,0.0878,0.088,0.0881,0.1024,0,0,0,0,0,0,0.0968,0.0961,0.0911,0.0883,0.0866,0.075,0.0803,0.0788,0.0798,0.0799,0.0789,0.08,0.0784,0.0818,0.0819,0.0915,0.0844,0.0877,0.0879,0.088,0.1018,0.103,0.104,0,0,0,0,0,0.0969,0.0916,0.0907,0.0903,0.0815,0.075,0.0726,0.0708,0.0795,0.0718,0.0773,0.0804,0.0831,0.0817,0.0818,0.0917,0.0876,0.0878,0.088,0.1013,0.1028,0.104,0,0,0,0,0,0,0.0904,0.0907,0.0897,0.0842,0.0793,0.0753,0.0726,0.0737,0.0702,0.075,0.0786,0.0795,0.0867,0.0845,0.083,0.0926,0.087,0.0872,0.0971,0.0984,0.0995,0.0959,0.0844,0,0,0,0,0,0.0873,0.0843,0.082,0.0776,0.0778,0.076,0.0735,0.0718,0.0727,0.0715,0.0765,0.0814,0.0851,0.0886,0.088,0.0916,0.0893,0.0985,0.0996,0.1006,0.0973,0.0995,0.1006,0.0888,0.0888,0.0888,0,0,0.084,0.085,0.0824,0.0762,0.0753,0.0763,0.0749,0.0726,0.0754,0.0743,0.083,0.0847,0.0863,0.0908,0.0943,0.0924,0.1037,0.1008,0.1017,0.0978,0.0999,0.101,0.1021,0.0889,0.0889,0.0889,0,0,0.0847,0.0781,0.079,0.0744,0.0744,0.0747,0.0773,0.0765,0.0765,0.0814,0.085,0.09,0.098,0.0978,0.1004,0.1061,0.1086,0.1113,0.1158,0.1184,0.1194,0.1202,0.1236,0.1246,0.1131,0.1131,0.1131,0,0.082,0.0794,0.0768,0.0779,0.0773,0.0789,0.0798,0.0793,0.0802,0.0815,0.0879,0.0989,0.1009,0.1065,0.1094,0.1093,0.1113,0.1123,0.1201,0.1208,0.1215,0.1246,0.1256,0.1138,0.1137,0.1137,0.1136,0,0.0796,0.0799,0.0815,0.0857,0.084,0.0811,0.0856,0.0863,0.0961,0.0978,0.1054,0.1064,0.1119,0.1171,0.1167,0.123,0.1234,0.1212,0.1176,0.1236,0.1265,0.1273,0.1148,0.1146,0.1144,0.1142,0,0,0.0749,0.0781,0.08,0.0815,0.0841,0.0834,0.0919,0.0937,0.1006,0.1066,0.114,0.1218,0.1226,0.1244,0.1252,0.1285,0.1374,0.1284,0.1282,0.1331,0.1459,0.1418,0.1422,0.1394,0.1395,0.1395,0.1481,0,0.0749,0.0784,0.0792,0.0856,0.0894,0.0886,0.0963,0.0991,0.1064,0.1136,0.1169,0.1247,0.1262,0.13,0.1339,0.1347,0.1392,0.1353,0.1376,0.1376,0.1345,0.1427,0.1219,0.1273,0.1487,0.1488,0.1489,0,0.0746,0.0779,0.0829,0.0869,0.0878,0.0919,0.0989,0.1023,0.1112,0.1158,0.1232,0.1277,0.133,0.1339,0.1412,0.1402,0.1431,0.1451,0.1454,0.1353,0.1347,0.1234,0.1277,0.15,0.1499,0.1498,0.1498,0,0.075,0.0807,0.0851,0.0841,0.0914,0.0928,0.0952,0.1047,0.1074,0.1161,0.1222,0.1297,0.1349,0.1398,0.1465,0.1451,0.155,0.1526,0.1516,0.1515,0.1299,0.1276,0.1566,0.1566,0.1566,0.1565,0.1565,0,0.0736,0.0784,0.0861,0.0847,0.0911,0.0948,0.0994,0.1023,0.1096,0.1153,0.1225,0.1298,0.1372,0.1451,0.1487,0.1541,0.1575,0.1523,0.1532,0.1348,0.1329,0.147,0.1458,0.1569,0.1568,0.1567,0.1567,0,0.0789,0.082,0.0845,0.0879,0.0924,0.0955,0.0981,0.102,0.1086,0.1161,0.1193,0.1314,0.1423,0.1499,0.1584,0.1566,0.1611,0.1617,0.1407,0.1388,0.1552,0.1546,0.1599,0.1599,0.1598,0.1597,0.1597,0,0.0834,0.0868,0.0857,0.0891,0.0915,0.0969,0.1027,0.1039,0.1058,0.118,0.1211,0.1352,0.1431,0.1546,0.1527,0.1567,0.1653,0.1412,0.1315,0.1551,0.1555,0.155,0.1545,0.111,0.1105,0.1102,0.1099,0,0.0895,0.0865,0.0873,0.0916,0.0962,0.0995,0.1024,0.1036,0.1082,0.1141,0.1222,0.1296,0.1372,0.1315,0.1373,0.1375,0.1382,0.1339,0.1643,0.1133,0.1096,0.1098,0.1108,0.1067,0.107,0.1072,0.1074,0.1075,0.0947,0.0924,0.0894,0.096,0.1009,0.1026,0.1005,0.1029,0.1064,0.1094,0.1173,0.1182,0.1122,0.1096,0.1117,0.1133,0.1208,0.113,0.1139,0.1151,0.1079,0.1042,0.0991,0.0993,0.0996,0.0998,0.1,0,0.0984,0.0927,0.0948,0.0955,0.0994,0.1017,0.1036,0.0992,0.0993,0.1014,0.1026,0.0854,0.0816,0.0853,0.0769,0.0767,0.0748,0.0797,0.0721,0.075,0.0776,0.0684,0.0492,0.0492,0.0491,0.0491,0,0,0.0963,0.0944,0.0921,0.0969,0.1003,0.0987,0.0978,0.0918,0.087,0.0813,0.075,0.0738,0.0729,0.0556,0.0539,0.052,0.0659,0.052,0.0901,0.0835,0.0862,0.0915,0.0799,0,0,0,0,0]},{"header":{"parameterUnit":"m.s-1","parameterCategory":2,"la1":30.2991,"la2":30.254,"lo1":-89.0895,"lo2":-89.0444,"dy":0.0017,"dx":0.0017,"nx":28,"ny":28,"refTime":"2025-07-13T09:00:00:Z","depth":"2","parameterNumber":3,"parameterNumberName":"V-component_of_CURRENTS"},"data":[0,0,0,0,0,0,0,0,0,0,0,0,0,0,0,0,0,0,0,0,0,0,0,0,0,0,0,0,0,0,0,0,0,0,0,0,0,0,0,0,0,0,0,0,0,0,0,0,0,0,0,0,0,0,0,0,0,0,0.0,-0.0001,0,0.0009,0.0011,0.0012,0.0052,0.0051,0.005,0.0049,-0.0004,-0.0004,-0.0005,0,0,0,0,0,0,0,0,0,0,0,0,0,0.013,0.0129,0.0,-0.0002,-0.0003,0.0009,0.0011,0.0013,0.0052,0.0051,0.005,0.0048,-0.0004,-0.0004,-0.0005,0,0,0,0,0,0,0,0,0,0,0,0,0,0.012,0.0128,0.0001,0.0002,0.0,0.0008,0.0011,0.0014,0.0052,0.0051,0.0049,0.0048,-0.0004,-0.0004,-0.0005,0.0023,0,0,-0.0007,-0.0007,0,0,0,0,0,0,0,0,0.012,0.0118,0.0003,0.0001,-0.0,0.0009,0.0036,0.0006,0.0053,0.0056,0.0049,0.0047,-0.0018,-0.0018,0.0019,0.002,0.0018,-0.0007,-0.0007,-0.0008,-0.0008,0,0,0,0,0,0,0,0.0121,0.0118,0.0026,0.0001,-0.0001,0.0038,0.0037,0.0033,0.0043,0.0055,0.0053,0.002,-0.0017,0.002,0.0017,0.0017,-0.0007,-0.0007,-0.0008,-0.0008,0.0038,0.004,0,0,0,0,0,0,0.0072,0.0118,0.0025,0.0024,0.0033,0.0035,0.0035,0.0025,0.0044,0.004,0.0021,0.0021,0.0022,0.0018,0.0015,0.0005,-0.0008,-0.0008,-0.0009,0.0037,0.0039,0.0041,0,0,0,0,0,0,0.0076,0.0065,0.0024,0.0053,0.0047,0.0032,0.0023,0.0026,0.0029,0.0015,0.0014,0.0014,0.002,0.0016,0.0021,0.0004,-0.0008,-0.0009,0.0035,0.0037,0.004,0.001,0,0,0,0,0,0,0.008,0.0067,0.0075,0.005,0.0043,0.0044,0.0022,0.0026,0.0003,0.0003,0.0009,0.0005,0.0019,0.0022,0.002,0.0002,-0.001,0.0033,0.0036,0.0039,0.0009,0.0011,0.0013,0,0,0,0,0,0.0085,0.0071,0.0077,0.0065,0.0045,0.0044,0.005,0.0046,0.0003,0.0039,0.0031,0.0003,0.004,0.0023,0.002,0.0002,0.0031,0.0035,0.0039,0.0008,0.0011,0.0013,0,0,0,0,0,0,0.0108,0.0071,0.0077,0.0049,0.0057,0.0042,0.0033,0.0027,0.0053,0.0022,0.0022,0.0021,0.0024,0.0028,0.0009,0.0033,0.0031,0.0034,0.0009,0.0011,0.0013,0.0002,-0.001,0,0,0,0,0,0.0119,0.0107,0.0092,0.0066,0.0056,0.0045,0.004,0.0035,0.0026,0.0035,0.002,0.0018,0.0046,0.0036,0.0061,0.006,0.0072,0.0052,0.0054,0.0055,0.005,0.0097,0.0102,0.0053,0.0053,0.0052,0,0,0.0114,0.0084,0.008,0.0073,0.0057,0.0052,0.0044,0.0011,0.0015,0.0019,0.0002,0.0019,0.0053,0.0073,0.0071,0.0061,0.0073,0.006,0.006,0.0054,0.0102,0.0106,0.011,0.0055,0.0055,0.0054,0,0,0.0074,0.007,0.0054,0.0074,0.0041,0.003,0.001,-0.0013,-0.0001,-0.0007,0.0008,0.0022,0.0019,0.0067,0.0087,0.0113,0.0091,0.0104,0.0085,0.0131,0.0135,0.0138,0.0134,0.0137,0.0093,0.0093,0.0093,0,0.0062,0.0067,0.0053,0.005,0.005,0.0008,0.0008,0.0014,-0.0,0.0018,-0.0025,0.0016,0.0026,0.0092,0.01,0.0112,0.0116,0.0064,0.013,0.0134,0.0138,0.0133,0.0137,0.0092,0.0093,0.0093,0.0093,0,0.0064,0.0059,0.0033,0.0024,0.0025,0.0017,0.0003,-0.0002,-0.0047,-0.003,-0.0001,0.0024,0.0054,0.0058,0.0073,0.0119,0.0104,0.0132,0.0113,0.014,0.0134,0.0139,0.0091,0.0091,0.0092,0.0092,0,0,0.0014,0.0043,0.0029,0.0053,0.0029,0.0025,0.0004,0.0026,0.0021,0.0005,0.0025,0.0063,0.0058,0.0084,0.0107,0.0126,0.0141,0.012,0.0123,0.0094,0.0198,0.0184,0.0188,0.0172,0.0173,0.0174,0.0171,0,0.0017,0.0034,0.0046,0.0045,0.0044,0.0046,0.0036,0.0042,0.0031,0.0038,0.0068,0.0087,0.0077,0.0075,0.0099,0.015,0.0156,0.0136,0.0194,0.0195,0.0163,0.0195,0.0191,0.0188,0.0176,0.0176,0.0177,0,0.0019,0.0025,0.0036,0.0075,0.0075,0.0074,0.0072,0.0066,0.0077,0.0081,0.0097,0.0102,0.0141,0.0111,0.0179,0.0161,0.0166,0.0184,0.0185,0.0187,0.0192,0.0168,0.0197,0.0185,0.0184,0.0183,0.0183,0,0.0006,0.0026,0.0037,0.0058,0.0064,0.0081,0.0084,0.0075,0.0082,0.01,0.0098,0.0144,0.015,0.0182,0.0193,0.0186,0.0245,0.0257,0.0246,0.0243,0.026,0.0257,0.0292,0.0292,0.0292,0.0292,0.0292,0,0.0023,0.0028,0.0035,0.0064,0.0059,0.0064,0.0078,0.0087,0.009,0.0106,0.011,0.0136,0.0164,0.0191,0.0203,0.0234,0.0261,0.0242,0.0254,0.0247,0.0244,0.0265,0.0262,0.0291,0.0292,0.0292,0.0292,0,-0.0014,0.0002,0.0022,0.0057,0.005,0.0038,0.0083,0.0096,0.009,0.0104,0.0103,0.0135,0.0172,0.0185,0.0238,0.0248,0.0282,0.028,0.0238,0.0246,0.0237,0.0233,0.0274,0.0273,0.0273,0.0273,0.0273,0,-0.0026,-0.003,0.0008,0.0006,0.0024,0.0026,0.0023,0.0063,0.0092,0.0119,0.0133,0.0151,0.0198,0.025,0.0266,0.028,0.027,0.0266,0.0269,0.0233,0.0241,0.0237,0.0233,0.0264,0.0264,0.0264,0.0264,0,-0.0051,-0.0042,-0.0023,-0.0019,-0.0009,0.0016,0.0057,0.0081,0.0108,0.0126,0.0187,0.022,0.0262,0.0289,0.0272,0.0284,0.0267,0.0263,0.0272,0.0269,0.0225,0.0232,0.0229,0.0262,0.0263,0.0263,0.0263,0.0263,-0.0097,-0.0071,-0.0031,-0.004,-0.004,0.001,0.0051,0.0108,0.0132,0.0163,0.022,0.0263,0.0283,0.0278,0.0269,0.0247,0.027,0.0255,0.0256,0.0257,0.0256,0.0215,0.0247,0.0247,0.0247,0.0247,0.0247,0,-0.011,-0.005,-0.0035,-0.0014,-0.0015,0.0002,0.0054,0.0086,0.013,0.0171,0.0221,0.023,0.026,0.0258,0.0238,0.0237,0.0238,0.0209,0.0211,0.0213,0.0215,0.0212,0.0191,0.019,0.019,0.0189,0,0,-0.0091,-0.0047,-0.0006,-0.0008,-0.0013,0.0005,0.0034,0.0064,0.0106,0.0139,0.0167,0.0242,0.0273,0.0227,0.0217,0.0196,0.0197,0.0188,0.0239,0.0244,0.0245,0.0256,0.0256,0,0,0,0,0]}],[{"header":{"parameterUnit":"m.s-1","parameterCategory":2,"la1":30.2991,"la2":30.254,"lo1":-89.0895,"lo2":-89.0444,"dy":0.0017,"dx":0.0017,"nx":28,"ny":28,"refTime":"2025-07-13T09:00:00:Z","depth":"4","parameterNumber":2,"parameterNumberName":"U-component_of_CURRENTS"},"data":[0,0,0,0,0,0,0,0,0,0,0,0,0,0,0,0,0,0,0,0,0,0,0,0,0,0,0,0,0,0,0,0,0,0,0,0,0,0,0,0,0,0,0,0,0,0,0,0,0,0,0,0,0,0,0,0,0,0,-0.0564,-0.0565,0,-0.065,-0.0651,-0.0652,-0.0704,-0.0704,-0.0704,-0.0704,-0.0816,-0.0818,-0.0821,0,0,0,0,0,0,0,0,0,0,0,0,0,-0.0563,-0.0562,-0.0564,-0.0565,-0.0566,-0.0649,-0.0651,-0.0652,-0.0704,-0.0704,-0.0704,-0.0704,-0.0815,-0.0818,-0.0821,0,0,0,0,0,0,0,0,0,0,0,0,0,-0.0598,-0.0562,-0.0564,-0.0601,-0.0605,-0.0649,-0.0651,-0.0652,-0.0704,-0.0704,-0.0704,-0.0704,-0.0814,-0.0818,-0.0822,-0.0844,0,0,-0.0835,-0.0837,0,0,0,0,0,0,0,0,-0.0596,-0.0598,-0.0595,-0.0599,-0.0603,-0.0665,-0.0691,-0.0717,-0.0704,-0.0668,-0.0704,-0.0705,-0.0767,-0.0775,-0.0792,-0.0849,-0.0854,-0.0835,-0.0838,-0.084,-0.0841,0,0,0,0,0,0,0,-0.0593,-0.0596,-0.06,-0.0596,-0.0601,-0.0653,-0.0657,-0.0697,-0.0717,-0.0671,-0.0675,-0.0682,-0.0769,-0.0788,-0.0795,-0.0856,-0.0835,-0.0839,-0.0842,-0.0843,-0.1019,-0.1021,0,0,0,0,0,0,-0.0573,-0.0593,-0.0597,-0.0602,-0.0598,-0.0652,-0.0657,-0.0646,-0.0716,-0.0726,-0.0681,-0.0684,-0.078,-0.079,-0.0799,-0.0985,-0.084,-0.0844,-0.0846,-0.1017,-0.1019,-0.1021,0,0,0,0,0,0,-0.0573,-0.0572,-0.0593,-0.06,-0.0606,-0.0651,-0.0639,-0.0648,-0.0697,-0.0723,-0.0734,-0.0725,-0.0781,-0.0793,-0.087,-0.0984,-0.0846,-0.0849,-0.1014,-0.1017,-0.102,-0.1257,0,0,0,0,0,0,-0.0572,-0.0571,-0.0574,-0.0597,-0.0604,-0.0649,-0.0639,-0.0649,-0.0699,-0.0703,-0.0764,-0.0772,-0.0782,-0.0863,-0.0874,-0.0987,-0.0853,-0.1011,-0.1016,-0.1019,-0.1247,-0.1268,-0.1286,0,0,0,0,0,-0.0571,-0.0571,-0.0573,-0.0575,-0.06,-0.0651,-0.0662,-0.0695,-0.0701,-0.0738,-0.0777,-0.0772,-0.0895,-0.0869,-0.0881,-0.0998,-0.1009,-0.1014,-0.1019,-0.1238,-0.1264,-0.1286,0,0,0,0,0,0,-0.0581,-0.0577,-0.0579,-0.058,-0.0625,-0.066,-0.0684,-0.0715,-0.0775,-0.0791,-0.0805,-0.0818,-0.0927,-0.0907,-0.0877,-0.1048,-0.095,-0.0957,-0.1112,-0.1136,-0.1156,-0.1075,-0.0856,0,0,0,0,0,-0.0579,-0.0579,-0.0597,-0.0611,-0.0617,-0.0657,-0.0686,-0.073,-0.0774,-0.0802,-0.0842,-0.0884,-0.095,-0.0997,-0.103,-0.1132,-0.1067,-0.1204,-0.1224,-0.1242,-0.1178,-0.1218,-0.1236,-0.1037,-0.1037,-0.1037,0,0,-0.0592,-0.059,-0.0593,-0.0615,-0.0635,-0.0694,-0.0676,-0.0742,-0.0813,-0.0805,-0.0906,-0.0954,-0.0984,-0.1104,-0.1151,-0.1113,-0.127,-0.1248,-0.1264,-0.1188,-0.1225,-0.1244,-0.1261,-0.104,-0.104,-0.1039,0,0,-0.0622,-0.0603,-0.0616,-0.0654,-0.0706,-0.0745,-0.0771,-0.0832,-0.0868,-0.0978,-0.0996,-0.1091,-0.1183,-0.1239,-0.1276,-0.1409,-0.1364,-0.1447,-0.1512,-0.1557,-0.1573,-0.1587,-0.1558,-0.1566,-0.1472,-0.1473,-0.1473,0,-0.0641,-0.0655,-0.0641,-0.0678,-0.0723,-0.077,-0.0837,-0.0888,-0.0986,-0.102,-0.1032,-0.1193,-0.124,-0.138,-0.1436,-0.1461,-0.1441,-0.1443,-0.1586,-0.1597,-0.1607,-0.1573,-0.158,-0.1485,-0.1483,-0.1482,-0.1481,0,-0.0678,-0.0716,-0.0728,-0.0787,-0.0842,-0.0912,-0.0973,-0.1044,-0.1106,-0.1164,-0.1295,-0.1367,-0.1444,-0.1526,-0.1531,-0.1655,-0.1604,-0.1607,-0.1535,-0.1642,-0.1599,-0.1602,-0.1502,-0.1498,-0.1494,-0.1491,0,0,-0.0659,-0.0737,-0.075,-0.0803,-0.0911,-0.0963,-0.1068,-0.1166,-0.124,-0.1347,-0.1443,-0.1583,-0.1601,-0.1632,-0.1689,-0.1747,-0.1844,-0.1715,-0.1712,-0.1697,-0.1896,-0.1643,-0.1621,-0.1902,-0.1903,-0.1904,-0.1848,0,-0.0702,-0.0786,-0.0828,-0.0965,-0.1015,-0.1094,-0.1191,-0.1297,-0.1379,-0.1484,-0.1559,-0.1655,-0.1652,-0.1719,-0.1786,-0.1825,-0.1856,-0.1852,-0.1775,-0.1769,-0.1545,-0.1617,-0.1908,-0.1849,-0.185,-0.185,-0.185,0,-0.0721,-0.0782,-0.0885,-0.1043,-0.107,-0.1156,-0.1302,-0.1397,-0.1528,-0.159,-0.1684,-0.1727,-0.182,-0.1805,-0.1872,-0.1878,-0.1867,-0.1885,-0.1885,-0.1539,-0.1519,-0.1707,-0.1854,-0.1854,-0.1853,-0.1853,-0.1853,0,-0.069,-0.0834,-0.0915,-0.0964,-0.1134,-0.1183,-0.1272,-0.1409,-0.148,-0.1608,-0.1673,-0.1792,-0.1822,-0.1868,-0.1853,-0.1884,-0.1895,-0.195,-0.1695,-0.1677,-0.182,-0.1805,-0.1953,-0.1953,-0.1953,-0.1953,-0.1954,0,-0.0696,-0.0792,-0.0892,-0.0934,-0.105,-0.1158,-0.127,-0.1371,-0.1507,-0.1529,-0.1682,-0.1673,-0.1835,-0.1852,-0.1868,-0.1742,-0.1889,-0.1657,-0.1642,-0.1922,-0.192,-0.1823,-0.1809,-0.1951,-0.1952,-0.1952,-0.1953,0,-0.0663,-0.0738,-0.0848,-0.0986,-0.1023,-0.1089,-0.1229,-0.1291,-0.1425,-0.1451,-0.147,-0.1596,-0.1531,-0.1657,-0.1699,-0.1685,-0.1651,-0.1564,-0.1792,-0.1798,-0.1406,-0.1405,-0.1295,-0.1285,-0.1277,-0.127,-0.1265,0,-0.0651,-0.0693,-0.0826,-0.0852,-0.0901,-0.0995,-0.1038,-0.121,-0.1207,-0.1295,-0.1245,-0.127,-0.129,-0.1207,-0.1326,-0.1348,-0.1331,-0.1359,-0.1425,-0.1339,-0.1338,-0.1349,-0.1359,-0.1252,-0.125,-0.1248,-0.1246,0,-0.0635,-0.0678,-0.0743,-0.077,-0.0803,-0.0876,-0.0892,-0.0896,-0.0982,-0.1112,-0.0978,-0.0989,-0.0912,-0.0967,-0.1001,-0.1013,-0.1398,-0.1276,-0.1295,-0.1356,-0.1287,-0.1296,-0.1314,-0.1218,-0.1222,-0.1224,-0.1226,0,-0.0619,-0.0631,-0.0662,-0.0698,-0.0723,-0.0695,-0.0766,-0.0697,-0.0751,-0.0795,-0.0674,-0.0719,-0.0772,-0.0771,-0.077,-0.0798,-0.0803,-0.0874,-0.0914,-0.0947,-0.0866,-0.073,-0.0438,0,0,0,0,0,-0.0574,-0.0563,-0.0576,-0.0601,-0.0608,-0.0628,-0.0627,-0.0675,-0.0688,-0.0536,-0.0625,-0.0506,-0.0497,-0.0536,-0.0496,-0.0628,-0.084,-0.0584,-0.0952,-0.1063,-0.1095,-0.1037,0,0,0,0,0,0,-0.0541,-0.0557,-0.0547,-0.0486,-0.0469,-0.048,-0.0484,-0.0515,-0.0429,-0.0439,-0.0428,-0.0463,-0.0471,-0.0494,-0.0479,-0.0494,-0.0713,-0.0612,-0.061,-0.1045,-0.1074,-0.11,-0.1051,0,0,0,0,0]},{"header":{"parameterUnit":"m.s-1","parameterCategory":2,"la1":30.2991,"la2":30.254,"lo1":-89.0895,"lo2":-89.0444,"dy":0.0017,"dx":0.0017,"nx":28,"ny":28,"refTime":"2025-07-13T09:00:00:Z","depth":"4","parameterNumber":3,"parameterNumberName":"V-component_of_CURRENTS"},"data":[0,0,0,0,0,0,0,0,0,0,0,0,0,0,0,0,0,0,0,0,0,0,0,0,0,0,0,0,0,0,0,0,0,0,0,0,0,0,0,0,0,0,0,0,0,0,0,0,0,0,0,0,0,0,0,0,0,0,0.0476,0.0475,0,0.0422,0.0422,0.0421,0.0465,0.0467,0.0469,0.047,0.053,0.053,0.053,0,0,0,0,0,0,0,0,0,0,0,0,0,0.0518,0.0518,0.0476,0.0475,0.0474,0.0422,0.0422,0.0421,0.0465,0.0467,0.0469,0.0471,0.053,0.053,0.053,0,0,0,0,0,0,0,0,0,0,0,0,0,0.0487,0.0518,0.0476,0.0489,0.0489,0.0423,0.0422,0.0421,0.0464,0.0467,0.047,0.0472,0.053,0.053,0.053,0.0478,0,0,0.053,0.053,0,0,0,0,0,0,0,0,0.0489,0.0486,0.0488,0.0488,0.0488,0.0452,0.0459,0.0445,0.0464,0.0475,0.047,0.0473,0.0512,0.0513,0.0498,0.048,0.0483,0.053,0.053,0.053,0.053,0,0,0,0,0,0,0,0.0491,0.0488,0.0456,0.0487,0.0487,0.0464,0.0464,0.0455,0.0482,0.0474,0.0477,0.0468,0.0513,0.0497,0.05,0.0484,0.053,0.053,0.053,0.053,0.0521,0.0521,0,0,0,0,0,0,0.0498,0.049,0.0457,0.0454,0.0494,0.0461,0.0461,0.0462,0.048,0.0484,0.0466,0.0471,0.0496,0.05,0.0502,0.0548,0.053,0.053,0.053,0.0521,0.0521,0.0521,0,0,0,0,0,0,0.0499,0.0495,0.0459,0.0469,0.0463,0.0459,0.0459,0.0459,0.0485,0.0472,0.048,0.0496,0.0498,0.0502,0.0514,0.0547,0.053,0.053,0.0522,0.0521,0.0521,0.0571,0,0,0,0,0,0,0.05,0.0496,0.0501,0.047,0.0463,0.0436,0.0456,0.0457,0.0472,0.0479,0.0499,0.0505,0.0501,0.0514,0.0514,0.0546,0.053,0.0522,0.0522,0.0521,0.0569,0.0572,0.0575,0,0,0,0,0,0.0502,0.0485,0.0501,0.0497,0.0469,0.0435,0.043,0.0435,0.0472,0.0472,0.0489,0.0507,0.0513,0.0513,0.0513,0.0547,0.0522,0.0522,0.0521,0.0568,0.0572,0.0575,0,0,0,0,0,0,0.0488,0.0487,0.0505,0.0486,0.0475,0.0443,0.0425,0.0453,0.0463,0.0494,0.0495,0.0499,0.0526,0.0516,0.0517,0.0539,0.0524,0.0523,0.0559,0.0562,0.0565,0.0513,0.053,0,0,0,0,0,0.0491,0.0496,0.0482,0.047,0.0457,0.0455,0.0447,0.0475,0.0474,0.0484,0.0497,0.051,0.0512,0.0525,0.052,0.0526,0.0528,0.0548,0.055,0.0553,0.0508,0.0552,0.0556,0.0519,0.0519,0.0519,0,0,0.0478,0.0481,0.0481,0.047,0.0453,0.0435,0.0457,0.0463,0.0466,0.0488,0.0496,0.0523,0.0513,0.0524,0.0535,0.053,0.057,0.0552,0.0555,0.0507,0.0552,0.0556,0.056,0.0519,0.0519,0.0519,0,0,0.045,0.0457,0.0452,0.0447,0.0453,0.0444,0.0459,0.0464,0.0476,0.0495,0.0511,0.0546,0.0551,0.0545,0.0542,0.0549,0.0582,0.0575,0.055,0.0597,0.0601,0.0603,0.0643,0.0649,0.0578,0.0578,0.0578,0,0.044,0.0436,0.044,0.0433,0.0416,0.0453,0.0436,0.0439,0.0463,0.0458,0.051,0.0524,0.0549,0.053,0.0542,0.0558,0.0587,0.0549,0.0603,0.0605,0.0608,0.0647,0.0653,0.0581,0.058,0.058,0.058,0,0.0403,0.0413,0.0395,0.0404,0.0385,0.0383,0.0382,0.0393,0.0437,0.0453,0.0475,0.0509,0.0508,0.0549,0.0551,0.0571,0.059,0.0608,0.0601,0.0615,0.0655,0.0661,0.0584,0.0583,0.0582,0.0582,0,0,0.0366,0.0371,0.0378,0.0367,0.0381,0.0353,0.0344,0.0322,0.0311,0.0384,0.0367,0.0414,0.0459,0.0454,0.049,0.0538,0.0618,0.0582,0.0584,0.063,0.0727,0.0581,0.0573,0.0668,0.0669,0.0669,0.0762,0,0.0341,0.0323,0.0334,0.0306,0.0276,0.0289,0.0256,0.0262,0.0283,0.0281,0.0341,0.0357,0.0413,0.0446,0.0498,0.0577,0.0628,0.0589,0.0695,0.0696,0.0573,0.0572,0.067,0.0766,0.0768,0.0768,0.0769,0,0.0315,0.03,0.0283,0.0238,0.0221,0.0229,0.0172,0.0159,0.0163,0.0185,0.0222,0.0261,0.0316,0.0387,0.0514,0.0497,0.0595,0.0674,0.068,0.051,0.0556,0.0739,0.0779,0.0778,0.0777,0.0777,0.0776,0,0.0286,0.0259,0.0243,0.0237,0.0202,0.0198,0.0179,0.0161,0.0128,0.0148,0.0152,0.0207,0.0258,0.0378,0.0505,0.0537,0.0651,0.072,0.0674,0.0667,0.0755,0.075,0.0803,0.0803,0.0802,0.0802,0.0802,0,0.0256,0.0247,0.0246,0.0245,0.02,0.0185,0.015,0.0134,0.0116,0.0069,0.0124,0.0097,0.0266,0.0332,0.0474,0.0553,0.0628,0.0634,0.0664,0.0778,0.0774,0.0762,0.0755,0.0806,0.0805,0.0804,0.0804,0,0.0253,0.0266,0.0241,0.0214,0.0213,0.0193,0.0151,0.0098,0.0101,0.0046,0.0053,0.0051,0.0108,0.0236,0.0417,0.0488,0.0602,0.0616,0.0695,0.0734,0.061,0.0606,0.0591,0.0586,0.0582,0.0579,0.0576,0,0.0244,0.0248,0.0237,0.0242,0.026,0.0227,0.0185,0.0129,0.0056,-0.0007,-0.0057,-0.0036,-0.0029,0.0133,0.0247,0.0444,0.0475,0.0552,0.0595,0.0549,0.0581,0.0583,0.0584,0.057,0.0569,0.0567,0.0566,0,0.0212,0.025,0.0227,0.0263,0.0251,0.0169,0.0109,0.005,-0.005,-0.007,-0.0118,-0.0074,-0.0058,0.0063,0.0177,0.0328,0.0512,0.0511,0.0523,0.0565,0.0523,0.056,0.0565,0.0552,0.0554,0.0556,0.0556,0,0.0201,0.0191,0.0224,0.0248,0.0241,0.0167,0.0098,0.0006,-0.0064,-0.0145,-0.0176,-0.0127,-0.0102,-0.0007,0.0098,0.0203,0.0259,0.0364,0.0385,0.0401,0.029,0.0206,0.0135,0,0,0,0,0,0.0183,0.02,0.0204,0.0206,0.0207,0.0219,0.0069,-0.0025,-0.0144,-0.0169,-0.0157,-0.0142,-0.0046,-0.0033,0.0054,0.0008,0.0256,0.0107,0.0385,0.0474,0.0491,0.0373,0,0,0,0,0,0,0.0166,0.0191,0.0195,0.0209,0.0238,0.0179,0.0109,-0.0008,-0.0042,-0.0113,-0.0063,-0.0072,0.0014,-0.0032,0.0096,0.0103,0.0295,0.0137,0.0139,0.0465,0.048,0.0493,0.0378,0,0,0,0,0]}]]